Location: Csohesd
(46.2500°N, 22.6167°E)
Time: 15:42:41
(UTC+00:00)

X-37B - Visible Passes

Search period start: 04 December 2022 00:00
Search period end: 14 December 2022 00:00
Orbit: 277 x 277 km, 45.0° (Epoch: 01 November)

Date Brightness Start Highest point End Pass type
(mag) Time Alt. Az. Time Alt. Az. Time Alt. Az.
08 Dec 2.2 16:01:13 10° S 16:02:44 15° SSE 16:03:18 14° SE visible
09 Dec 1.7 16:01:14 10° SSW 16:03:16 22° SSE 16:04:00 19° SE visible
10 Dec 1.1 16:01:35 10° SW 16:03:51 32° SSE 16:04:40 25° ESE visible
11 Dec 0.6 16:02:05 10° WSW 16:04:28 45° SSE 16:05:18 30° ESE visible
12 Dec 0.2 16:02:41 10° WSW 16:05:07 58° S 16:05:57 33° ESE visible
13 Dec 0.1 16:03:19 10° W 16:05:46 65° S 16:06:37 34° ESE visible
